DMSP 5D-2 F13 DEB, 40450

Orbit data source: Space-Track

DMSP 5D-2 F13 DEB, 40450 is space debris in SSO originally from a launch on Fri, 24 Mar 1995 UTC launched from the Air Force Western Test Range (AFWTR). Debris objects in space refer to the collection of defunct objects orbiting the Earth. Examples of debris include non-operational satellites, rocket bodies, and fragments generated from explosions, collisions, or faulty payload assembly.

Loading next visibility...
Identifier
40450, 1995-015BC
Orbit
SSO
Country
Flag of USUS
Related business
Manufacturer
Unknown
Mission
Spacecraft
Bus & Motor
Unknown
Mass
Unknown
Launch date (UTC)
1995-03-24 (31 years ago)
Launch vehicle
Unknown
Launch site
Air Force Western Test Range (AFWTR)
Object type
Payload
Rocket body
Debris
Shape & HBR
Unknown shape, 0.1 m
Radar Cross Section
Small (<0.1 m²)

Expand to show TLE details & history
Last TLE update: 2 days ago

TLE from 2 days ago
0 DMSP 5D-2 F13 DEB
1 40450U 95015BC  26171.02630880  .00001383  00000-0  52996-3 0  9996
2 40450  98.6329 198.1973 0011486 327.9539  32.0945 14.32166811586878
Epoch: 2026-06-20T00:37Z
TLE epoch observation values (Epoch: 2026-06-20T00:37:53.080Z)
Latitude
-0.00001°
Longitude
-79.52071°
Altitude
780.462 km
Speed
7.467 km/s
True Right ascension
13h 12m 47s
True Declination
0° 00' 00"
Sunlit
Object was in daylight at epoch
Visualization orbit readout
Latitude
Unknown
Longitude
Unknown
Altitude
Unknown
Speed
Unknown
Apparent Right ascension
Unknown
Apparent Declination
Unknown
Sunlit
N/A
Visualization observer readout
Local Sidereal Time
15:03:08
Azimuth
Unknown
Elevation
Unknown
Doppler factor
Unknown
Orbital elements
Apogee altitude
789.86 km
Perigee altitude
773.412 km
Semi-major axis
7,159.773 km
Eccentricity
0.00115
Inclination
98.6329°
RAAN
198.1973°
Arg. of periapsis
327.9539°
True anomaly
32.16452°
Mean anomaly
32.0945°
Eccentric anomaly
32.1295°
Mean motion
3.58257 °/min
Orbital period
100.49 mins
BSTAR
0.00052996
Loading maneuver chart data...
Computing Atmospheric mass density...

Documentation

Showing up to 5 results
|